Lapse_Rate
4.6 7.1 9.9 9.1 6.5 6.5 6.5 6.5 6.5 6.5 6.5 7.6 7.8 6.8 6.7 7.3 6.6 6.5 9.8 10.0 10.1 10.2 9.2 6.9 5.7 5.8 5.7 5.6 5.6 5.5 5.5 5.6 5.8 5.7 5.7 5.5 5.5 5.6 5.5 5.9 6.0 5.9 5.8 6.0 5.9 6.3 6.0 5.7 5.6
9.9 9.8 9.3 8.0 6.5 6.5 6.5 6.5 6.5 6.5 7.1 7.8 7.8 7.3 7.0 6.5 8.4 8.9 9.3 9.9 10.2 10.1 9.6 9.4 6.1 6.2 5.9 5.6 5.6 5.7 5.8 5.5 5.7 5.7 5.7 5.7 5.6 5.8 5.8 5.9 5.9 5.9 6.0 6.1 6.2 6.2 6.4 5.9 5.6
9.6 9.7 7.8 6.5 6.5 6.5 6.5 6.5 6.5 6.9 7.6 7.0 6.9 8.1 7.7 7.3 8.8 9.0 9.9 10.1 10.0 10.1 9.7 7.8 5.6 6.0 5.9 5.7 5.8 6.1 6.0 5.7 5.8 5.8 5.7 5.9 5.9 5.9 6.0 5.9 5.8 5.9 6.1 6.2 6.2 6.3 6.5 6.3 6.2
9.4 8.9 8.0 6.5 6.5 6.5 6.5 6.5 6.8 6.4 7.4 7.8 7.6 6.6 8.4 9.0 9.0 9.6 10.1 10.0 9.8 10.0 9.6 5.5 5.9 6.0 5.8 5.8 5.9 6.2 6.4 6.2 6.3 6.2 6.2 6.2 6.2 6.2 6.3 6.2 6.1 6.4 6.5 6.6 7.1 6.8 6.6 6.8 6.8
9.3 8.1 6.5 6.5 6.5 6.5 6.5 7.0 7.2 6.5 6.9 6.7 7.7 6.8 7.5 8.7 9.7 9.9 10.0 9.9 9.7 9.1 9.4 7.1 5.8 5.9 6.0 6.1 6.2 6.3 6.6 6.6 6.5 6.5 6.4 6.5 6.7 7.2 6.7 6.7 6.6 6.6 6.7 6.9 7.2 7.0 6.8 6.7 6.5
7.4 7.5 6.5 6.5 6.5 6.5 6.6 7.3 7.2 6.7 7.2 7.3 7.3 7.3 7.7 9.4 9.5 9.8 10.1 9.7 9.8 7.7 9.7 6.1 5.8 5.8 6.2 6.6 6.5 6.5 6.6 6.7 6.6 6.5 6.7 6.6 6.7 7.1 6.7 6.7 6.8 6.8 7.0 6.9 6.9 7.0 6.8 7.1 6.7
6.7 6.5 6.5 6.5 6.5 6.5 6.5 7.6 6.8 6.8 6.9 6.3 7.6 6.5 8.1 8.9 9.7 10.0 9.8 9.8 9.6 9.0 8.7 7.1 9.2 7.2 7.0 6.8 6.7 6.6 6.6 6.6 6.7 6.7 6.8 6.6 6.7 6.7 6.6 6.9 7.1 6.8 7.0 7.2 6.7 6.6 6.7 7.0 7.0
7.6 6.5 6.5 6.5 6.5 6.5 6.8 7.3 7.6 7.1 6.9 8.5 8.3 6.6 7.1 8.9 9.7 10.0 9.9 9.7 9.1 8.6 10.1 9.7 9.2 9.5 9.2 7.1 6.6 6.5 6.4 5.7 5.9 6.3 6.7 6.9 6.5 6.4 6.3 6.4 6.7 7.1 7.3 7.3 6.8 6.6 6.5 6.7 6.7
8.3 6.5 6.5 6.5 6.5 6.5 7.2 6.6 7.8 8.2 7.6 7.9 8.2 7.9 8.9 9.5 9.8 9.7 9.6 9.7 9.7 9.6 9.3 9.6 9.8 9.4 8.9 6.4 5.9 4.7 4.7 4.3 4.1 4.3 4.2 5.1 8.6 8.3 8.6 7.8 6.8 7.1 6.9 7.2 7.2 6.6 6.4 6.6 6.5
6.7 6.5 6.5 6.5 6.5 6.5 6.9 7.0 7.2 7.1 7.2 7.3 7.8 8.6 9.3 9.4 9.3 9.0 9.2 9.2 9.4 9.4 9.3 9.5 9.1 9.3 6.8 4.4 4.0 4.5 4.7 6.1 4.5 3.5 3.8 6.0 7.2 5.4 5.5 7.4 6.7 6.7 6.8 7.0 7.0 6.6 6.4 6.1 9.4
7.0 6.5 6.5 6.8 7.3 7.4 6.9 7.0 7.6 6.8 6.5 7.5 7.4 8.1 8.9 9.1 9.1 9.0 9.0 8.9 9.4 9.7 8.5 9.8 9.7 9.1 6.2 3.3 5.8 3.1 3.5 4.5 3.9 3.3 4.0 6.6 8.4 9.5 9.1 8.8 6.9 5.9 7.4 8.4 8.1 7.1 8.8 9.4 8.6
6.5 6.9 7.0 7.2 7.4 7.3 6.7 7.4 7.0 7.3 7.2 8.3 8.5 8.7 8.8 8.8 8.9 9.0 8.9 8.9 9.0 9.2 8.5 9.9 9.9 9.6 7.2 7.3 4.9 4.1 4.4 4.0 4.3 3.4 3.7 5.9 7.3 8.1 7.7 6.1 8.3 6.1 8.7 7.3 9.0 7.3 9.0 7.6 9.3
6.5 6.6 7.2 7.4 7.5 7.4 7.5 6.9 6.8 7.2 8.1 8.6 8.7 8.7 8.6 8.8 8.8 9.0 8.9 9.0 9.0 8.7 8.4 8.6 8.3 7.8 8.4 7.2 5.8 3.9 6.4 4.9 4.3 4.3 4.6 7.0 7.6 5.6 6.2 5.9 8.5 7.8 9.4 7.4 9.0 8.4 9.2 8.7 9.6
7.1 7.0 7.0 7.3 7.3 7.4 6.7 6.8 7.2 7.5 8.3 8.3 8.4 8.4 8.7 8.7 8.9 8.9 8.8 8.8 8.9 8.7 8.6 8.2 7.1 8.3 9.0 8.2 5.2 5.7 5.0 5.5 5.2 6.2 7.8 8.0 6.8 8.8 6.9 5.8 5.7 8.5 8.4 9.2 8.7 9.3 8.1 9.7 9.8
7.3 6.5 6.5 6.7 7.0 6.6 7.2 6.5 6.5 7.7 8.2 7.9 8.1 8.3 8.5 8.7 8.9 8.8 9.0 9.0 9.1 9.2 8.5 8.8 9.1 8.7 7.9 7.8 6.2 4.9 9.0 7.8 6.8 5.0 5.6 7.7 9.3 8.3 8.3 6.4 5.1 8.0 9.2 9.4 9.4 9.4 9.6 8.5 8.6
6.5 6.5 6.5 6.5 6.7 7.0 6.9 6.5 6.5 7.9 7.7 7.6 7.9 8.2 8.3 8.5 8.8 8.9 9.1 9.1 9.2 9.2 9.2 9.5 9.8 9.1 9.5 6.7 7.0 6.3 8.1 9.5 6.8 8.3 9.3 9.4 9.5 8.4 7.6 6.1 5.9 7.7 8.9 8.9 9.8 9.7 9.6 8.9 7.7
6.5 6.5 6.5 6.5 6.7 6.5 6.5 6.5 6.8 7.8 7.6 7.4 7.8 8.1 8.2 8.4 8.7 9.0 9.1 9.4 9.3 9.2 9.4 9.4 9.6 9.5 9.5 9.5 9.1 9.5 7.0 8.1 9.0 8.5 8.3 9.3 9.5 9.5 8.5 5.9 6.4 7.9 8.6 7.9 8.0 9.2 7.3 9.4 9.2
6.5 6.5 6.5 6.5 6.5 6.5 6.5 6.5 6.5 7.5 7.4 7.3 7.6 8.0 8.1 8.2 8.5 9.0 9.3 9.4 9.5 9.5 9.5 9.5 9.6 9.5 9.5 9.7 9.6 9.5 9.8 9.0 8.5 8.6 8.9 9.4 9.6 9.5 8.6 7.0 7.7 8.9 8.7 6.4 8.3 7.8 7.0 9.3 9.4
6.5 6.5 6.5 6.5 6.5 6.5 6.5 6.5 6.5 7.2 7.3 7.2 7.5 7.7 7.9 8.2 8.8 9.1 9.3 9.4 9.5 9.5 9.4 9.4 9.4 9.3 9.5 9.5 7.6 8.8 7.5 7.3 9.0 7.6 9.3 9.6 9.4 9.5 9.5 9.6 9.3 7.9 8.0 8.0 9.1 9.4 8.3 8.6 9.0
6.5 6.5 6.5 6.5 6.5 6.5 6.5 6.5 6.5 6.6 6.9 7.3 7.4 7.6 7.9 8.1 8.5 8.8 9.1 9.3 9.4 9.3 9.3 9.3 9.3 9.3 9.3 9.6 9.5 8.1 7.2 7.3 9.4 9.8 9.2 9.3 8.9 9.3 9.4 9.5 9.3 9.3 7.5 8.9 8.2 8.4 6.7 7.4 8.5
6.5 6.5 6.5 6.5 6.5 6.5 6.5 6.5 6.5 6.6 7.1 7.4 7.8 8.0 8.1 8.1 8.3 8.6 8.8 9.1 9.3 9.1 9.2 9.2 9.2 9.3 8.9 9.4 9.6 9.5 9.5 9.1 8.4 7.9 9.3 8.1 7.1 8.9 8.9 9.5 9.4 9.5 7.8 6.3 8.2 9.2 8.4 6.6 6.8
6.5 6.5 6.5 6.5 6.5 6.5 6.5 6.5 6.5 6.5 6.5 6.5 7.4 7.7 8.0 8.2 8.4 8.6 8.8 9.0 9.2 9.2 9.4 9.3 9.3 9.2 9.3 8.4 9.4 9.1 7.2 7.8 7.7 8.6 8.3 9.5 8.7 9.3 8.9 8.1 9.4 8.8 9.5 9.0 8.8 9.4 8.6 5.6 5.4
6.5 6.5 6.5 6.5 6.5 6.5 6.5 6.5 6.5 6.5 6.5 6.5 6.9 7.5 7.9 8.3 8.5 8.6 8.8 9.0 9.2 9.3 9.4 9.4 9.3 9.2 9.1 8.5 7.5 9.4 8.4 8.3 9.5 9.4 7.4 8.9 8.5 9.2 8.2 9.3 9.4 9.2 9.6 8.9 9.2 8.4 7.6 4.6 3.8
6.5 6.5 6.5 6.5 6.5 6.5 6.5 6.5 6.5 6.5 6.5 6.5 6.9 7.4 7.8 8.2 8.5 8.6 8.9 9.0 9.1 9.3 9.4 9.4 9.1 8.9 7.9 8.5 7.1 6.8 8.0 8.5 7.7 8.6 9.2 9.4 9.5 9.2 8.0 9.5 8.7 8.0 7.7 8.8 9.5 8.5 6.7 7.7 3.4
6.5 6.5 6.5 6.5 6.5 6.5 6.5 6.5 6.5 6.5 6.5 6.4 6.7 7.3 7.8 8.2 8.4 8.5 8.6 8.8 8.9 9.0 9.1 9.3 9.1 8.4 7.6 8.7 9.0 8.0 8.6 8.9 8.8 7.8 9.2 8.8 9.4 8.6 9.1 9.1 8.3 7.3 7.7 6.6 8.4 8.1 8.8 7.4 6.8
6.5 6.5 6.5 6.5 6.5 6.5 6.5 6.5 6.5 6.5 7.1 7.3 7.5 7.7 7.9 8.2 8.6 8.6 8.6 8.8 8.8 9.0 9.1 9.2 9.0 8.9 9.0 8.9 9.0 9.0 8.4 9.3 9.0 8.1 6.5 7.4 7.0 7.8 7.9 9.0 9.0 7.5 6.5 6.5 7.5 6.9 9.5 9.2 8.5
6.5 6.5 6.5 6.5 6.5 6.5 6.5 6.5 6.5 6.5 6.5 7.0 7.3 7.5 7.6 7.9 8.2 8.3 8.6 8.7 8.8 9.0 9.1 9.1 9.0 9.1 9.2 9.3 9.2 8.5 7.9 7.9 8.7 9.1 9.1 9.4 9.1 8.3 8.7 9.6 9.4 8.5 7.7 8.2 8.7 8.7 8.0 9.2 8.7
6.5 6.5 6.5 6.5 6.5 6.5 6.5 6.5 6.5 6.5 6.5 6.5 6.7 7.3 7.7 7.9 8.2 8.4 8.7 8.9 9.0 9.3 9.4 9.3 9.3 9.2 9.3 9.3 9.3 9.3 9.2 8.3 9.2 9.1 8.9 8.2 8.4 8.1 9.3 7.1 8.6 9.3 8.4 8.8 8.1 6.4 7.9 8.6 9.4
6.5 6.5 6.5 6.5 6.5 6.5 6.5 6.5 6.5 6.5 6.5 6.5 6.9 7.5 7.9 8.1 8.3 8.4 8.6 8.8 9.0 9.1 9.2 9.3 9.3 9.1 9.2 9.3 9.1 8.4 8.7 9.4 9.4 9.4 9.2 9.4 9.4 9.3 9.2 9.0 8.2 7.1 8.0 8.2 7.6 8.1 8.3 7.4 6.9
6.5 6.5 6.5 6.5 6.5 6.5 6.5 6.5 6.5 6.5 6.5 7.1 7.1 7.6 8.0 8.2 8.4 8.6 8.7 8.7 8.8 8.8 8.9 9.0 9.1 9.2 9.3 9.2 9.2 9.3 9.4 9.4 9.5 9.2 9.4 9.0 9.3 9.5 9.3 9.1 9.0 9.0 9.0 8.2 7.7 7.7 8.4 8.6 7.9
Wind_Speed
12 14 9 6 5 4 8 13 16 9 15 15 7 12 14 15 11 9 22 18 21 20 21 19 18 19 19 17 16 16 16 14 12 12 11 11 11 11 12 10 11 10 10 10 9 11 12 12 12
13 3 6 7 3 2 9 7 8 14 14 11 12 5 14 15 8 20 19 22 21 20 22 20 18 19 18 18 16 16 15 14 11 10 10 9 8 8 8 8 7 7 7 8 8 8 11 11 12
12 5 8 5 5 7 7 15 9 10 12 10 4 12 10 7 16 15 20 22 21 18 23 22 18 19 19 19 17 15 13 12 11 9 9 8 6 5 5 5 4 5 6 7 7 8 8 10 11
5 5 5 5 9 15 8 8 13 12 12 8 5 16 10 7 16 17 21 21 19 18 24 20 18 18 19 18 17 15 13 12 10 9 7 6 5 4 4 5 5 4 3 6 7 7 6 8 11
7 4 1 6 12 11 7 10 9 8 4 5 10 16 9 5 12 20 20 18 18 19 24 21 16 16 16 16 15 14 12 10 9 7 6 5 4 3 3 4 5 5 4 3 5 5 5 5 8
7 4 3 11 8 6 8 4 6 11 5 11 14 15 11 12 18 19 18 17 16 20 22 19 16 16 15 15 13 12 10 8 6 5 3 2 2 3 4 5 6 5 5 4 3 4 4 5 6
2 5 7 11 7 10 10 4 5 7 10 8 18 15 13 16 18 18 17 14 14 15 21 16 17 14 14 14 12 9 7 4 2 2 2 3 4 6 6 6 6 6 5 5 4 4 4 4 5
4 10 11 7 7 11 6 11 5 7 10 5 8 7 14 18 18 16 16 16 16 16 16 15 17 14 15 14 12 10 9 7 4 3 5 7 11 13 13 10 8 6 6 5 4 4 4 5 5
4 7 8 13 10 10 5 12 9 1 8 9 3 12 20 19 20 16 14 15 14 14 15 16 16 18 16 14 14 11 9 6 7 7 9 12 15 6 17 17 13 7 5 5 5 6 6 7 9
3 11 10 13 14 12 9 11 5 5 10 10 8 16 20 20 19 18 17 14 14 15 15 11 11 15 19 12 15 11 6 9 10 9 11 14 10 10 5 10 11 5 5 6 7 7 8 12 14
10 8 13 14 10 13 8 12 3 3 9 16 12 16 18 19 17 16 16 16 15 13 9 12 12 13 16 11 12 7 7 8 12 14 14 15 15 11 10 7 7 4 9 10 12 13 14 16 8
13 6 11 12 2 8 11 3 12 12 6 15 16 17 16 18 17 16 14 13 13 12 12 13 14 12 16 14 9 9 7 8 10 12 14 14 12 11 7 6 8 4 8 12 10 13 6 13 1
10 9 5 5 5 7 5 8 9 10 11 16 17 16 16 16 15 13 12 14 13 12 14 10 13 8 13 9 11 9 10 11 13 14 17 16 12 9 12 7 1 8 4 8 7 1 7 5 9
5 4 3 3 8 8 7 8 10 10 13 15 16 15 15 17 15 14 12 11 11 10 13 14 14 13 13 10 10 10 7 12 12 13 12 15 16 3 13 6 4 11 11 2 8 5 4 6 9
6 10 8 5 4 10 2 10 18 13 14 16 15 15 14 14 13 13 13 13 11 11 10 9 16 14 13 12 13 12 12 14 12 15 23 24 6 4 5 2 3 10 6 4 7 5 6 4 5
8 9 9 9 3 6 1 11 13 13 13 16 15 13 13 13 15 12 13 10 13 11 12 12 10 13 15 13 14 14 12 9 12 8 9 11 9 6 5 2 3 8 11 8 7 7 6 5 1
8 6 7 10 2 2 2 13 14 15 12 14 14 14 12 13 14 13 14 8 12 12 11 9 8 10 11 10 13 12 13 10 10 10 12 11 10 11 7 6 8 7 9 4 4 2 2 4 5
6 6 6 5 10 5 5 15 16 15 14 13 13 14 13 13 13 15 14 16 10 11 11 10 9 8 7 7 6 6 8 7 11 8 8 10 11 10 8 7 5 6 3 4 4 6 2 6 5
3 6 0 4 5 4 7 8 16 16 14 14 13 14 13 14 14 15 13 13 14 12 13 13 12 11 9 8 5 6 4 4 5 9 14 6 10 9 9 8 5 6 4 3 4 1 5 5 5
6 6 9 8 3 7 5 7 15 16 13 17 14 15 14 13 15 14 14 14 14 14 13 13 12 11 10 9 8 5 4 3 5 6 6 9 11 14 12 8 7 6 3 5 5 6 3 6 6
12 12 4 7 9 11 7 12 10 7 14 13 17 15 15 14 14 14 14 14 13 14 14 13 13 12 11 10 7 6 6 4 3 4 7 10 14 13 13 11 8 5 4 5 6 7 5 4 2
10 3 1 4 11 14 17 3 9 14 14 16 16 15 17 15 14 14 15 14 15 13 14 13 13 12 12 12 9 9 4 6 4 7 7 5 12 12 12 11 10 8 7 6 8 7 4 3 3
3 2 1 8 11 13 14 10 4 14 15 17 16 15 13 16 15 17 15 14 13 13 13 13 13 12 11 12 11 8 9 7 7 7 6 6 3 9 10 11 11 9 8 9 8 1 6 4 2
6 7 10 12 13 13 14 15 15 2 16 14 8 10 14 17 17 14 14 14 12 12 12 12 13 11 12 12 13 13 9 8 6 3 5 7 7 7 10 12 10 9 9 9 8 7 7 9 6
10 15 11 12 12 11 3 8 10 16 6 13 9 10 13 13 17 15 15 14 13 13 12 11 13 13 12 12 12 11 11 9 8 5 8 6 5 6 9 9 8 8 8 7 8 9 8 10 10
14 16 14 6 5 10 14 7 4 22 11 9 8 7 10 18 17 16 15 13 12 12 12 12 13 12 11 11 11 10 8 8 7 7 6 7 6 2 5 8 10 8 9 10 9 7 10 11 11
15 7 19 15 13 9 11 16 15 14 14 13 13 11 10 11 11 11 10 8 7 10 11 11 10 10 10 11 9 6 6 6 8 6 6 6 6 8 11 8 8 9 10 10 10 9 10 9 9
18 11 13 9 1 11 7 4 11 9 11 13 13 13 12 10 9 9 10 11 11 11 10 9 9 8 8 7 7 7 6 7 7 6 7 8 9 10 10 8 11 10 10 12 10 7 11 10 10
9 11 11 1 6 10 3 7 10 23 20 15 14 14 14 15 12 9 7 7 7 7 5 5 6 7 6 5 3 3 5 5 5 6 7 7 8 9 10 10 9 11 11 10 10 12 12 12 9
8 10 12 7 7 13 11 6 5 5 16 17 14 14 13 14 13 12 11 12 11 11 9 8 8 7 8 6 6 6 3 2 6 9 7 4 6 8 9 10 11 11 11 10 12 13 14 14 14
Wind_Direction
222 214 236 259 256 154 81 76 54 78 82 79 78 63 81 47 44 95 137 137 140 135 135 151 145 144 142 135 138 136 135 135 133 130 122 112 104 102 100 97 98 104 110 111 110 118 113 113 114
274 291 233 277 42 56 89 62 91 65 74 96 72 312 78 66 83 127 136 131 140 132 148 144 148 146 144 140 141 138 136 137 134 134 125 120 112 107 105 108 113 118 121 122 120 113 124 122 125
262 273 272 291 87 50 86 84 74 85 78 42 47 38 31 77 121 128 130 143 137 142 138 125 145 149 146 144 143 137 135 133 130 132 130 123 119 117 119 127 143 161 158 149 143 135 136 137 138
281 210 226 147 78 90 73 72 95 46 43 71 360 97 88 142 136 120 141 151 135 149 124 132 141 145 144 144 141 137 133 131 130 130 125 125 134 151 169 175 179 181 178 166 154 146 156 159 151
227 238 316 88 87 87 78 65 33 83 97 109 85 75 99 77 115 134 149 140 157 118 127 139 141 142 139 137 135 134 135 136 137 138 140 143 166 176 172 184 181 186 183 179 159 163 158 161 162
254 247 203 91 94 93 84 44 26 110 94 100 117 90 97 148 132 144 157 152 146 129 137 132 142 141 137 133 136 134 135 135 133 131 131 142 195 215 204 198 178 178 169 170 152 158 163 170 171
317 63 58 81 110 74 73 135 58 89 80 101 108 101 120 140 140 152 148 150 133 104 111 148 156 143 136 133 128 121 110 108 106 140 182 219 222 229 201 200 185 182 180 172 160 149 163 166 172
270 95 62 63 94 84 92 75 63 93 76 99 86 135 155 145 152 157 150 146 129 136 141 163 156 154 150 143 128 116 80 63 32 349 292 270 240 218 194 189 183 180 183 185 182 164 166 173 160
242 106 94 66 90 106 166 91 62 90 116 66 61 132 149 147 156 159 153 154 151 137 154 163 158 178 144 106 114 107 90 33 14 355 330 286 259 232 219 171 157 180 189 196 191 182 185 187 177
147 75 62 88 93 97 80 70 102 127 134 122 105 104 144 155 162 164 162 163 155 161 153 156 163 149 124 140 140 142 167 235 292 308 299 298 310 289 147 135 134 155 195 200 203 191 203 214 201
67 98 109 75 63 89 111 89 43 41 48 138 144 139 149 157 171 167 169 167 161 168 145 163 156 136 141 146 160 148 169 196 265 282 296 284 302 289 301 87 121 188 206 212 193 190 215 215 203
107 73 73 105 135 112 75 131 69 45 39 112 135 147 150 159 173 171 173 160 149 157 140 167 151 171 163 177 157 184 193 201 228 259 266 265 285 276 171 100 162 225 233 209 195 241 170 223 25
92 102 147 86 140 84 125 63 84 75 94 114 140 144 153 160 168 169 171 153 155 148 146 185 146 159 169 180 168 184 214 215 222 235 242 243 252 274 113 113 13 244 230 255 236 89 259 181 266
92 92 104 150 119 117 134 129 127 105 108 127 136 147 160 151 169 154 162 162 160 156 155 148 154 162 181 185 164 187 201 223 224 252 256 236 233 228 83 126 194 270 193 203 174 225 266 216 230
152 187 163 94 137 133 90 132 102 128 129 138 146 154 153 155 155 157 161 163 162 162 149 161 153 162 170 174 179 199 205 188 203 228 243 224 256 343 12 120 235 243 215 212 240 207 253 245 278
231 232 149 106 178 120 350 106 132 148 147 146 149 153 156 154 156 149 161 166 147 159 164 173 178 165 169 159 175 189 211 229 203 267 234 198 238 219 232 194 231 258 252 225 222 211 208 243 40
205 246 85 130 201 126 232 122 147 161 170 145 159 156 170 167 172 164 170 187 158 156 156 189 186 180 163 170 182 200 167 201 246 194 237 200 202 229 202 214 250 204 239 221 262 119 56 263 246
300 118 166 115 137 223 221 134 151 174 184 160 160 160 174 174 186 169 183 165 192 164 163 183 181 189 177 177 221 222 218 197 197 219 244 180 214 217 200 213 220 249 250 321 278 109 211 272 248
358 295 22 136 105 251 253 155 159 167 190 159 175 163 171 179 171 161 188 175 181 176 182 179 191 177 187 198 183 228 214 231 187 187 216 198 231 217 224 240 196 210 225 272 282 213 199 250 288
267 231 220 145 164 262 167 248 145 163 192 168 189 169 169 179 158 166 180 187 188 184 190 187 193 189 199 197 217 186 208 200 205 227 227 228 223 224 219 227 209 206 217 229 234 210 199 259 240
228 253 29 318 184 219 238 231 158 187 174 188 178 184 172 175 163 171 181 188 188 180 190 187 192 190 202 223 214 213 253 245 227 208 213 207 218 234 237 217 228 200 211 231 232 211 198 245 320
282 71 323 251 257 233 205 154 205 165 173 182 189 195 177 169 179 174 182 191 187 185 186 191 190 197 199 208 223 225 210 233 203 224 218 255 200 226 218 236 215 215 223 210 232 194 219 117 347
78 332 224 274 272 269 206 209 229 159 163 176 190 182 199 176 183 172 187 183 188 180 181 187 189 195 213 201 233 222 219 215 233 217 139 213 234 232 245 214 213 222 221 209 250 253 158 136 146
2 258 222 230 245 258 235 230 187 282 152 159 165 181 193 179 178 185 178 169 182 169 182 185 182 196 201 209 211 236 254 249 286 205 254 231 202 214 209 228 217 213 234 254 212 187 225 180 193
232 250 245 222 215 237 293 227 138 263 162 151 164 189 203 200 172 183 175 171 178 167 182 183 182 194 202 211 219 221 241 253 274 289 264 267 256 201 179 211 224 210 226 250 255 207 211 188 200
210 237 259 262 275 327 191 191 131 212 130 134 145 149 184 189 174 178 177 176 176 169 181 191 180 191 197 208 217 228 227 242 236 222 252 290 319 262 309 189 224 221 215 217 222 232 220 203 209
255 257 273 301 153 217 260 112 132 138 135 139 128 130 141 163 152 162 162 152 162 189 182 199 189 192 204 201 210 205 215 244 274 276 288 275 274 280 285 267 258 215 227 232 224 224 243 242 217
265 319 224 244 16 295 46 214 117 113 139 136 138 129 125 124 130 151 169 170 185 187 182 191 180 193 197 207 184 210 211 209 245 246 262 291 292 295 270 288 284 254 232 230 218 225 226 236 230
195 235 248 194 312 271 64 299 160 160 184 150 134 137 142 142 133 124 123 130 126 95 117 140 176 144 171 149 117 136 201 228 223 241 259 275 290 289 278 265 253 272 264 249 233 229 245 209 234
297 328 284 289 219 327 310 209 20 305 131 125 132 133 124 122 123 121 114 106 101 92 83 91 103 123 124 139 166 164 159 241 246 219 245 238 287 290 281 271 271 272 269 256 240 235 237 224 215